| time (UTC) | temp F | wind direction | speed MPH | gust MPH | rain 1hr in | rain 24hr in | rain mn in | humidity % | barometer mb |
| 20260504224316 | 70 | 149 | 0.0 | 2.0 | 0.00 | 0.00 | 0.00 | 38 | 1008.0 |
| 20260504223816 | 70 | 193 | 0.0 | 2.0 | 0.00 | 0.00 | 0.00 | 38 | 1008.1 |
| 20260504223313 | 70 | 144 | 0.0 | 2.0 | 0.00 | 0.00 | 0.00 | 39 | 1008.1 |
| 20260504222829 | 70 | 146 | 0.0 | 3.0 | 0.00 | 0.00 | 0.00 | 37 | 1008.1 |
| 20260504222326 | 71 | 146 | 0.0 | 2.0 | 0.00 | 0.00 | 0.00 | 37 | 1008.1 |
| 20260504221821 | 71 | 88 | 0.0 | 8.0 | 0.00 | 0.00 | 0.00 | 38 | 1008.2 |
| 20260504221316 | 71 | 179 | 1.0 | 4.0 | 0.00 | 0.00 | 0.00 | 37 | 1008.3 |
| 20260504220813 | 71 | 135 | 1.0 | 4.0 | 0.00 | 0.00 | 0.00 | 37 | 1008.2 |
| 20260504220314 | 71 | 240 | 0.0 | 3.0 | 0.00 | 0.00 | 0.00 | 38 | 1008.3 |
| 20260504215829 | 71 | 163 | 1.0 | 3.0 | 0.00 | 0.00 | 0.00 | 37 | 1008.3 |
| 20260504215325 | 71 | 173 | 1.0 | 4.0 | 0.00 | 0.00 | 0.00 | 37 | 1008.3 |
| 20260504214821 | 71 | 218 | 1.0 | 4.0 | 0.00 | 0.00 | 0.00 | 39 | 1008.3 |
| 20260504214317 | 71 | 108 | 1.0 | 5.0 | 0.00 | 0.00 | 0.00 | 37 | 1008.4 |
| 20260504213814 | 71 | 150 | 1.0 | 5.0 | 0.00 | 0.00 | 0.00 | 37 | 1008.6 |
| 20260504213310 | 71 | 241 | 1.0 | 5.0 | 0.00 | 0.00 | 0.00 | 37 | 1008.6 |
| 20260504212825 | 72 | 108 | 2.0 | 6.0 | 0.00 | 0.00 | 0.00 | 36 | 1008.6 |
| 20260504212326 | 72 | 96 | 1.0 | 6.0 | 0.00 | 0.00 | 0.00 | 36 | 1008.6 |
| 20260504211822 | 72 | 282 | 3.0 | 5.0 | 0.00 | 0.00 | 0.00 | 35 | 1008.6 |
| 20260504211318 | 73 | 32 | 1.0 | 3.0 | 0.00 | 0.00 | 0.00 | 35 | 1008.5 |
| 20260504210814 | 72 | 11 | 1.0 | 3.0 | 0.00 | 0.00 | 0.00 | 36 | 1008.6 |
| 20260504210311 | 72 | 5 | 1.0 | 8.0 | 0.00 | 0.00 | 0.00 | 36 | 1008.5 |
| 20260504205827 | 72 | 173 | 1.0 | 8.0 | 0.00 | 0.00 | 0.00 | 35 | 1008.6 |
| 20260504205323 | 73 | 329 | 2.0 | 6.0 | 0.00 | 0.00 | 0.00 | 34 | 1008.6 |
| 20260504204823 | 73 | 189 | 0.0 | 10.0 | 0.00 | 0.00 | 0.00 | 36 | 1008.6 |
| 20260504204319 | 73 | 339 | 2.0 | 15.0 | 0.00 | 0.00 | 0.00 | 35 | 1008.6 |
| 20260504203815 | 73 | 49 | 1.0 | 3.0 | 0.00 | 0.00 | 0.00 | 37 | 1008.4 |
| 20260504203312 | 73 | 182 | 1.0 | 6.0 | 0.00 | 0.00 | 0.00 | 34 | 1008.5 |
| 20260504202828 | 73 | 317 | 1.0 | 6.0 | 0.00 | 0.00 | 0.00 | 35 | 1008.5 |
| 20260504202324 | 74 | 224 | 2.0 | 4.0 | 0.00 | 0.00 | 0.00 | 34 | 1008.5 |
| 20260504201820 | 73 | 198 | 1.0 | 8.0 | 0.00 | 0.00 | 0.00 | 35 | 1008.6 |
| 20260504201320 | 72 | 203 | 2.0 | 10.0 | 0.00 | 0.00 | 0.00 | 33 | 1008.6 |
| 20260504200816 | 72 | 288 | 2.0 | 9.0 | 0.00 | 0.00 | 0.00 | 34 | 1008.6 |
| 20260504200313 | 72 | 36 | 3.0 | 9.0 | 0.00 | 0.00 | 0.00 | 33 | 1008.6 |
| 20260504195827 | 72 | 330 | 1.0 | 6.0 | 0.00 | 0.00 | 0.00 | 34 | 1008.7 |
| 20260504195324 | 72 | 102 | 1.0 | 6.0 | 0.00 | 0.00 | 0.00 | 36 | 1008.9 |
| 20260504194820 | 72 | 74 | 0.0 | 9.0 | 0.00 | 0.00 | 0.00 | 34 | 1008.8 |
| 20260504194315 | 73 | 129 | 4.0 | 9.0 | 0.00 | 0.00 | 0.00 | 32 | 1008.9 |
| 20260504193815 | 73 | 311 | 1.0 | 6.0 | 0.00 | 0.00 | 0.00 | 33 | 1008.8 |
| 20260504193312 | 73 | 344 | 3.0 | 7.0 | 0.00 | 0.00 | 0.00 | 33 | 1008.8 |
| 20260504192829 | 73 | 292 | 1.0 | 4.0 | 0.00 | 0.00 | 0.00 | 35 | 1008.8 |
| 20260504192325 | 72 | 174 | 1.0 | 4.0 | 0.00 | 0.00 | 0.00 | 34 | 1008.8 |
| 20260504191821 | 72 | 195 | 1.0 | 5.0 | 0.00 | 0.00 | 0.00 | 33 | 1008.9 |
| 20260504191316 | 73 | 307 | 3.0 | 5.0 | 0.00 | 0.00 | 0.00 | 35 | 1009.1 |
| 20260504190812 | 72 | 202 | 3.0 | 10.0 | 0.00 | 0.00 | 0.00 | 34 | 1009.1 |
| 20260504190313 | 71 | 333 | 3.0 | 10.0 | 0.00 | 0.00 | 0.00 | 34 | 1009.1 |
| 20260504185829 | 71 | 347 | 2.0 | 9.0 | 0.00 | 0.00 | 0.00 | 36 | 1009.3 |
| 20260504185325 | 72 | 288 | 3.0 | 8.0 | 0.00 | 0.00 | 0.00 | 35 | 1009.4 |
| 20260504184821 | 72 | 204 | 2.0 | 8.0 | 0.00 | 0.00 | 0.00 | 35 | 1009.4 |
| 20260504184316 | 72 | 111 | 2.0 | 7.0 | 0.00 | 0.00 | 0.00 | 33 | 1009.4 |
| 20260504183812 | 72 | 200 | 1.0 | 8.0 | 0.00 | 0.00 | 0.00 | 34 | 1009.5 |
| 20260504183329 | 71 | 355 | 2.0 | 6.0 | 0.00 | 0.00 | 0.00 | 37 | 1009.7 |
| 20260504182828 | 72 | 338 | 3.0 | 10.0 | 0.00 | 0.00 | 0.00 | 36 | 1009.7 |
| 20260504182324 | 71 | 316 | 1.0 | 10.0 | 0.00 | 0.00 | 0.00 | 36 | 1009.8 |
| 20260504181820 | 72 | 230 | 2.0 | 5.0 | 0.00 | 0.00 | 0.00 | 34 | 1009.8 |
| 20260504181316 | 72 | 157 | 1.0 | 4.0 | 0.00 | 0.00 | 0.00 | 35 | 1009.8 |
| 20260504180812 | 72 | 206 | 1.0 | 8.0 | 0.00 | 0.00 | 0.00 | 34 | 1009.8 |
| 20260504180328 | 70 | 160 | 3.0 | 8.0 | 0.00 | 0.00 | 0.00 | 36 | 1009.8 |
| 20260504175824 | 70 | 323 | 2.0 | 10.0 | 0.00 | 0.00 | 0.00 | 37 | 1009.9 |
| 20260504175324 | 69 | 317 | 2.0 | 10.0 | 0.00 | 0.00 | 0.00 | 37 | 1010.0 |
| 20260504174820 | 69 | 244 | 4.0 | 10.0 | 0.00 | 0.00 | 0.00 | 35 | 1010.1 |
| 20260504174315 | 70 | 5 | 3.0 | 7.0 | 0.00 | 0.00 | 0.00 | 35 | 1010.1 |
| 20260504173811 | 70 | 203 | 1.0 | 8.0 | 0.00 | 0.00 | 0.00 | 35 | 1010.1 |
| 20260504173328 | 69 | 63 | 3.0 | 8.0 | 0.00 | 0.00 | 0.00 | 36 | 1010.0 |
| 20260504172823 | 69 | 88 | 2.0 | 9.0 | 0.00 | 0.00 | 0.00 | 35 | 1010.2 |
| 20260504172320 | 69 | 211 | 2.0 | 6.0 | 0.00 | 0.00 | 0.00 | 36 | 1010.5 |
| 20260504171820 | 68 | 265 | 3.0 | 10.0 | 0.00 | 0.00 | 0.00 | 36 | 1010.5 |
| 20260504171315 | 69 | 355 | 2.0 | 17.0 | 0.00 | 0.00 | 0.00 | 35 | 1010.7 |
| 20260504170812 | 69 | 232 | 2.0 | 17.0 | 0.00 | 0.00 | 0.00 | 39 | 1010.6 |
| 20260504170328 | 68 | 111 | 2.0 | 9.0 | 0.00 | 0.00 | 0.00 | 37 | 1010.7 |
| 20260504160329 | 67 | 75 | 2.0 | 7.0 | 0.00 | 0.00 | 0.00 | 37 | 1011.1 |
| 20260504150827 | 65 | 278 | 3.0 | 9.0 | 0.00 | 0.00 | 0.00 | 41 | 1011.8 |
| 20260504150323 | 65 | 334 | 3.0 | 6.0 | 0.00 | 0.00 | 0.00 | 39 | 1011.9 |
| 20260504141313 | 63 | 321 | 3.0 | 10.0 | 0.00 | 0.00 | 0.00 | 39 | 1012.3 |
| 20260504140830 | 63 | 237 | 1.0 | 9.0 | 0.00 | 0.00 | 0.00 | 42 | 1012.3 |
| 20260504140326 | 62 | 205 | 1.0 | 9.0 | 0.00 | 0.00 | 0.00 | 41 | 1012.5 |
| 20260504130815 | 57 | 113 | 1.0 | 9.0 | 0.00 | 0.00 | 0.00 | 46 | 1012.7 |
| 20260504130312 | 57 | 281 | 2.0 | 15.0 | 0.00 | 0.00 | 0.00 | 45 | 1012.7 |
| 20260504110313 | 50 | 167 | 0.0 | 3.0 | 0.00 | 0.00 | 0.00 | 55 | 1013.1 |
| 20260504100349 | 48 | 281 | 0.0 | 0.0 | 0.00 | 0.00 | 0.00 | 56 | 1013.0 |
| 20260504081816 | 49 | 285 | 0.0 | 2.0 | 0.00 | 0.00 | 0.00 | 55 | 1012.6 |
| 20260504081312 | 50 | 284 | 0.0 | 2.0 | 0.00 | 0.00 | 0.00 | 53 | 1012.7 |
| 20260504080828 | 49 | 277 | 0.0 | 1.0 | 0.00 | 0.00 | 0.00 | 53 | 1012.6 |
| 20260504080328 | 49 | 257 | 0.0 | 3.0 | 0.00 | 0.00 | 0.00 | 53 | 1012.7 |
| 20260504070327 | 49 | 296 | 0.0 | 3.0 | 0.00 | 0.00 | 0.00 | 55 | 1012.4 |
| 20260504050325 | 44 | 248 | 0.0 | 0.0 | 0.00 | 0.00 | 0.00 | 75 | 1012.3 |
| 20260504045826 | 44 | 248 | 0.0 | 0.0 | 0.00 | 0.00 | 0.00 | 76 | 1012.3 |
| 20260504045321 | 44 | 248 | 0.0 | 0.0 | 0.00 | 0.00 | 0.00 | 76 | 1012.3 |
| 20260504044837 | 44 | 248 | 0.0 | 0.0 | 0.00 | 0.00 | 0.00 | 75 | 1012.3 |
| 20260504044313 | 44 | 248 | 0.0 | 0.0 | 0.00 | 0.00 | 0.00 | 73 | 1012.3 |
| 20260504043849 | 44 | 248 | 0.0 | 0.0 | 0.00 | 0.00 | 0.00 | 72 | 1012.3 |
| 20260504043325 | 44 | 248 | 0.0 | 0.0 | 0.00 | 0.00 | 0.00 | 71 | 1012.2 |
| 20260504042820 | 44 | 248 | 0.0 | 0.0 | 0.00 | 0.00 | 0.00 | 71 | 1012.2 |
| 20260504042317 | 44 | 248 | 0.0 | 0.0 | 0.00 | 0.00 | 0.00 | 69 | 1012.1 |
| 20260504041817 | 45 | 248 | 0.0 | 0.0 | 0.00 | 0.00 | 0.00 | 71 | 1012.0 |
| 20260504041313 | 45 | 248 | 0.0 | 0.0 | 0.00 | 0.00 | 0.00 | 71 | 1011.9 |
| 20260504040830 | 45 | 248 | 0.0 | 0.0 | 0.00 | 0.00 | 0.00 | 71 | 1011.9 |
| 20260504040326 | 45 | 248 | 0.0 | 0.0 | 0.00 | 0.00 | 0.00 | 70 | 1011.7 |
| 20260504035821 | 45 | 248 | 0.0 | 0.0 | 0.00 | 0.00 | 0.00 | 69 | 1011.8 |
| 20260504035317 | 45 | 248 | 0.0 | 0.0 | 0.00 | 0.00 | 0.00 | 67 | 1011.8 |
| 20260504034813 | 45 | 248 | 0.0 | 0.0 | 0.00 | 0.00 | 0.00 | 66 | 1011.9 |
| 20260504034314 | 45 | 248 | 0.0 | 0.0 | 0.00 | 0.00 | 0.00 | 65 | 1012.0 |
| 20260504033830 | 46 | 248 | 0.0 | 0.0 | 0.00 | 0.00 | 0.00 | 66 | 1012.0 |
| 20260504033346 | 46 | 248 | 0.0 | 0.0 | 0.00 | 0.00 | 0.00 | 66 | 1012.0 |
| 20260504032820 | 46 | 248 | 0.0 | 0.0 | 0.00 | 0.00 | 0.00 | 65 | 1011.8 |
| 20260504032317 | 46 | 248 | 0.0 | 0.0 | 0.00 | 0.00 | 0.00 | 65 | 1011.9 |
| 20260504031814 | 47 | 248 | 0.0 | 0.0 | 0.00 | 0.00 | 0.00 | 65 | 1011.9 |
| 20260504031329 | 47 | 248 | 0.0 | 0.0 | 0.00 | 0.00 | 0.00 | 65 | 1011.9 |
| 20260504030826 | 47 | 248 | 0.0 | 0.0 | 0.00 | 0.00 | 0.00 | 63 | 1011.9 |
| 20260504030343 | 47 | 248 | 0.0 | 0.0 | 0.00 | 0.00 | 0.00 | 64 | 1011.8 |
| 20260504025822 | 47 | 248 | 0.0 | 0.0 | 0.00 | 0.00 | 0.00 | 63 | 1011.8 |
| 20260504025318 | 48 | 248 | 0.0 | 0.0 | 0.00 | 0.00 | 0.00 | 62 | 1011.8 |
| 20260504024814 | 48 | 248 | 0.0 | 0.0 | 0.00 | 0.00 | 0.00 | 60 | 1011.8 |
| 20260504024351 | 48 | 248 | 0.0 | 0.0 | 0.00 | 0.00 | 0.00 | 59 | 1011.7 |
| 20260504023827 | 48 | 248 | 0.0 | 0.0 | 0.00 | 0.00 | 0.00 | 61 | 1011.8 |
| 20260504023323 | 49 | 248 | 0.0 | 0.0 | 0.00 | 0.00 | 0.00 | 61 | 1011.9 |
| 20260504022818 | 49 | 248 | 0.0 | 0.0 | 0.00 | 0.00 | 0.00 | 56 | 1011.9 |
| 20260504022319 | 49 | 248 | 0.0 | 0.0 | 0.00 | 0.00 | 0.00 | 54 | 1011.9 |
| 20260504021815 | 49 | 248 | 0.0 | 0.0 | 0.00 | 0.00 | 0.00 | 53 | 1011.9 |
| 20260504021311 | 50 | 248 | 0.0 | 0.0 | 0.00 | 0.00 | 0.00 | 53 | 1011.9 |
| 20260504020828 | 50 | 248 | 0.0 | 0.0 | 0.00 | 0.00 | 0.00 | 54 | 1011.8 |
| 20260504020324 | 50 | 248 | 0.0 | 0.0 | 0.00 | 0.00 | 0.00 | 51 | 1011.9 |
| 20260504015839 | 50 | 248 | 0.0 | 0.0 | 0.00 | 0.00 | 0.00 | 51 | 1011.9 |
| 20260504015314 | 49 | 248 | 0.0 | 0.0 | 0.00 | 0.00 | 0.00 | 51 | 1011.9 |
| 20260504014850 | 49 | 248 | 0.0 | 0.0 | 0.00 | 0.00 | 0.00 | 51 | 1012.0 |
| 20260504014346 | 50 | 248 | 0.0 | 0.0 | 0.00 | 0.00 | 0.00 | 51 | 1011.8 |
| 20260504013825 | 50 | 248 | 0.0 | 0.0 | 0.00 | 0.00 | 0.00 | 50 | 1011.8 |
| 20260504013342 | 50 | 248 | 0.0 | 0.0 | 0.00 | 0.00 | 0.00 | 50 | 1011.7 |
| 20260504012817 | 50 | 248 | 0.0 | 0.0 | 0.00 | 0.00 | 0.00 | 50 | 1011.6 |
| 20260504012314 | 50 | 248 | 0.0 | 0.0 | 0.00 | 0.00 | 0.00 | 49 | 1011.6 |
| 20260504011850 | 50 | 248 | 0.0 | 0.0 | 0.00 | 0.00 | 0.00 | 50 | 1011.6 |
| 20260504011324 | 50 | 248 | 0.0 | 0.0 | 0.00 | 0.00 | 0.00 | 49 | 1011.5 |
| 20260504010821 | 50 | 248 | 0.0 | 0.0 | 0.00 | 0.00 | 0.00 | 48 | 1011.5 |
| 20260504010317 | 51 | 248 | 0.0 | 0.0 | 0.00 | 0.00 | 0.00 | 48 | 1011.4 |
| 20260504005817 | 51 | 248 | 0.0 | 0.0 | 0.00 | 0.00 | 0.00 | 47 | 1011.2 |
| 20260504005313 | 51 | 248 | 0.0 | 0.0 | 0.00 | 0.00 | 0.00 | 46 | 1011.2 |
| 20260504004830 | 52 | 248 | 0.0 | 0.0 | 0.00 | 0.00 | 0.00 | 45 | 1011.1 |
| 20260504004324 | 52 | 248 | 0.0 | 0.0 | 0.00 | 0.00 | 0.00 | 44 | 1011.1 |
| 20260504003820 | 53 | 248 | 0.0 | 0.0 | 0.00 | 0.00 | 0.00 | 44 | 1011.0 |
| 20260504003317 | 53 | 248 | 0.0 | 0.0 | 0.00 | 0.00 | 0.00 | 43 | 1010.9 |
| 20260504002812 | 53 | 248 | 0.0 | 2.0 | 0.00 | 0.00 | 0.00 | 42 | 1010.8 |
| 20260504002349 | 54 | 248 | 0.0 | 2.0 | 0.00 | 0.00 | 0.00 | 42 | 1010.7 |
| 20260504001828 | 54 | 281 | 0.0 | 1.0 | 0.00 | 0.00 | 0.00 | 40 | 1010.6 |
| 20260504001325 | 55 | 281 | 0.0 | 1.0 | 0.00 | 0.00 | 0.00 | 39 | 1010.6 |
| 20260504000822 | 56 | 281 | 0.0 | 1.0 | 0.00 | 0.00 | 0.00 | 38 | 1010.5 |
| 20260504000319 | 56 | 281 | 0.0 | 4.0 | 0.00 | 0.00 | 0.00 | 36 | 1010.5 |
| 20260503235834 | 57 | 294 | 1.0 | 4.0 | 0.00 | 0.00 | 0.00 | 35 | 1010.5 |
| 20260503235330 | 57 | 347 | 1.0 | 3.0 | 0.00 | 0.00 | 0.00 | 37 | 1010.3 |
| 20260503234826 | 57 | 65 | 1.0 | 8.0 | 0.00 | 0.00 | 0.00 | 35 | 1010.2 |
| 20260503234321 | 57 | 309 | 0.0 | 9.0 | 0.00 | 0.00 | 0.00 | 35 | 1010.2 |
| 20260503233821 | 57 | 306 | 1.0 | 7.0 | 0.00 | 0.00 | 0.00 | 34 | 1010.2 |
| 20260503233318 | 58 | 344 | 1.0 | 9.0 | 0.00 | 0.00 | 0.00 | 34 | 1010.1 |
| 20260503232813 | 58 | 322 | 2.0 | 9.0 | 0.00 | 0.00 | 0.00 | 36 | 1010.0 |
| 20260503232329 | 58 | 288 | 0.0 | 9.0 | 0.00 | 0.00 | 0.00 | 33 | 1010.0 |
| 20260503231825 | 58 | 302 | 3.0 | 9.0 | 0.00 | 0.00 | 0.00 | 34 | 1010.1 |
| 20260503231322 | 58 | 304 | 3.0 | 10.0 | 0.00 | 0.00 | 0.00 | 33 | 1010.0 |
| 20260503230818 | 58 | 290 | 2.0 | 10.0 | 0.00 | 0.00 | 0.00 | 33 | 1010.0 |
| 20260503230318 | 58 | 246 | 2.0 | 10.0 | 0.00 | 0.00 | 0.00 | 32 | 1009.9 |
| 20260503225814 | 58 | 16 | 4.0 | 11.0 | 0.00 | 0.00 | 0.00 | 32 | 1009.9 |
| 20260503225330 | 58 | 349 | 3.0 | 11.0 | 0.00 | 0.00 | 0.00 | 33 | 1009.9 |
| 20260503224827 | 58 | 339 | 4.0 | 16.0 | 0.00 | 0.00 | 0.00 | 33 | 1009.9 |